Flag Weather past 2 weeks in Miramichi, New Brunswick, Canada

Now
36 °F

Mostly cloudy.


Feels Like: 32 °F
Forecast: 29 / 51 °F
Wind: 5 mph from South

Location: Bathurst Airport

Current Time: Nov 24, 2014 at 10:10:10 AM

Latest Report: Nov 24, 2014 at 9:00 AM


Visibility: 15 mi

Pressure: 30.10 "Hg

Humidity: 81%

Dew point: 30 °F

Location of MiramichiLocation

Historic Weather in Miramichi — Graph

°F

Miramichi temperature yesterday

Maximum temperature yesterday: 39 °F (at 11:00 AM)
Minimum temperature yesterday: 30 °F (at 12:00 AM)
Average temperature yesterday: 35 °F

Past Weeks' High & Low Weather Summary

 TemperatureHumidityPressure
High41 °F (Nov 10, 3:00 PM)100% (Nov 9, 8:00 PM)30.32 "Hg (Nov 9, 8:00 PM)
Low7 °F (Nov 16, 5:00 AM)43% (Nov 15, 1:00 PM)29.19 "Hg (Nov 18, 12:00 PM)
Average28 °F77%29.90 "Hg
* Reported Nov 9 9:00 AM — Nov 24 9:00 AM, Miramichi, Weather by CustomWeather, © 2014

Note: Actual official high and low records may vary slightly from our data, if they occured in-between our weather recording intervals... More about our weather records

Advertising

Miramichi weather history for previous 24 hours

 ConditionsComfort  
Time TempWeatherWind HumidityBarometerVisibility
9:00 AM
Nov 24
36 °FMostly cloudy.5 mph81%30.10 "Hg15 mi
8:00 AM36 °FMostly cloudy.3 mph81%30.11 "Hg15 mi
7:00 AM36 °FOvercast.5 mph81%30.12 "Hg15 mi
6:00 AM34 °FOvercast.2 mph87%30.13 "Hg15 mi
5:00 AM34 °FOvercast.2 mph87%30.14 "Hg15 mi
4:00 AM34 °FOvercast.2 mph81%30.16 "Hg15 mi
3:00 AM34 °FOvercast.3 mph81%30.16 "Hg15 mi
2:00 AM32 °FOvercast.3 mph87%30.15 "Hg15 mi
1:00 AM32 °FOvercast.2 mph87%30.15 "Hg15 mi
12:00 AM32 °FOvercast.3 mph87%30.14 "Hg15 mi
11:00 PM
Nov 23
32 °FOvercast.2 mph87%30.14 "Hg15 mi
10:00 PM32 °FOvercast.2 mph87%30.13 "Hg15 mi
9:00 PM32 °FOvercast.No wind87%30.12 "Hg15 mi
8:00 PM32 °FOvercast.2 mph87%30.10 "Hg15 mi
7:00 PM34 °FOvercast.No wind81%30.08 "Hg15 mi
6:00 PM36 °FPassing clouds.3 mph75%30.08 "Hg15 mi
5:00 PM37 °FPassing clouds.2 mph70%30.04 "Hg15 mi
4:00 PM37 °FPartly sunny.5 mph70%30.03 "Hg15 mi
3:00 PM39 °FPartly sunny.7 mph65%30.00 "Hg15 mi
2:00 PM37 °FPartly sunny.9 mph65%29.96 "Hg15 mi
1:00 PM39 °FPartly sunny.9 mph61%29.95 "Hg15 mi
12:00 PM39 °FMostly cloudy.8 mph61%29.93 "Hg15 mi
11:00 AM39 °FPartly sunny.14 mph61%29.91 "Hg15 mi
10:00 AM37 °FPartly sunny.10 mph65%29.88 "Hg15 mi
Weather by CustomWeather, © 2014

See weather overviewHow to use our weather pages